Location: Silverdale
(47.6506°N, 122.6941°W)
Time: 15:49:37
(UTC+00:00)

Transit 4A - All Passes

Search period start: 26 September 2022 00:00
Search period end: 06 October 2022 00:00
Orbit: 869 x 975 km, 66.8° (Epoch: 25 September)

Date Brightness Start Highest point End Pass type
(mag) Time Alt. Az. Time Alt. Az. Time Alt. Az.
26 Sep - 05:57:55 10° ESE 05:59:40 11° E 06:01:24 10° E night (unlit)
26 Sep - 07:38:46 10° SSW 07:44:54 64° ESE 07:50:54 10° NE visible
26 Sep - 09:26:11 10° WSW 09:31:40 32° NW 09:37:03 10° NNE visible
26 Sep - 11:17:03 10° NW 11:20:01 14° NNW 11:22:57 10° NNE visible
26 Sep - 13:06:25 10° NNW 13:09:10 13° NNE 13:11:54 10° NE visible
26 Sep - 14:52:23 10° NNW 14:57:35 31° NE 15:02:41 10° E daylight
26 Sep - 16:38:33 10° NW 16:44:22 65° WSW 16:50:06 10° SSE daylight
26 Sep - 18:28:31 10° W 18:29:32 10° W 18:30:32 10° WSW daylight
27 Sep - 06:04:41 10° SE 06:08:33 17° ESE 06:12:23 10° ENE night (unlit)
27 Sep - 07:47:52 10° SSW 07:54:07 88° ESE 08:00:12 10° NE visible
27 Sep - 09:36:11 10° W 09:41:14 26° NW 09:46:11 10° NNE visible
27 Sep - 11:27:25 10° NNW 11:29:51 12° N 11:32:16 10° NNE visible
27 Sep - 13:15:40 10° NNW 13:18:59 15° NNE 13:22:15 10° NE visible
27 Sep - 15:01:31 10° NNW 15:07:04 40° NE 15:12:31 10° ESE daylight
27 Sep - 16:47:57 10° NW 16:53:30 45° WSW 16:58:58 10° S daylight
28 Sep - 06:12:35 10° SSE 06:17:31 25° ESE 06:22:21 10° NE visible
28 Sep - 07:57:13 10° SW 08:03:23 69° NW 08:09:26 10° NNE visible
28 Sep - 09:46:20 10° WNW 09:50:51 21° NNW 09:55:19 10° NNE visible
28 Sep - 11:37:36 10° NNW 11:39:43 12° N 11:41:49 10° NNE visible
28 Sep - 13:24:51 10° NNW 13:28:44 18° NNE 13:32:35 10° ENE visible
28 Sep - 15:10:42 10° NNW 15:16:29 53° NE 15:22:09 10° SE daylight
28 Sep - 16:57:30 10° NW 17:02:33 31° WSW 17:07:35 10° S daylight
29 Sep - 06:20:58 10° S 06:26:33 36° ESE 06:32:01 10° NE visible
29 Sep - 08:06:45 10° SW 08:12:45 51° NW 08:18:37 10° NNE visible
29 Sep - 09:56:37 10° WNW 10:00:33 17° NNW 10:04:27 10° NNE visible
29 Sep - 11:47:29 10° NNW 11:49:36 12° N 11:51:42 10° NNE visible
29 Sep - 13:34:00 10° NNW 13:38:26 21° NNE 13:42:48 10° E visible
29 Sep - 15:19:55 10° NNW 15:25:49 73° NE 15:31:37 10° SE daylight
29 Sep - 17:07:15 10° WNW 17:11:33 21° WSW 17:15:47 10° SSW daylight
30 Sep - 06:29:40 10° S 06:35:38 51° ESE 06:41:29 10° NE visible
30 Sep - 08:16:29 10° WSW 08:22:11 38° NW 08:27:48 10° NNE visible
30 Sep - 10:06:59 10° NW 10:10:19 15° NNW 10:13:37 10° NNE visible
30 Sep - 11:57:02 10° NNW 11:59:28 12° N 12:01:52 10° NNE visible
30 Sep - 13:43:08 10° NNW 13:48:03 26° NE 13:52:53 10° E daylight
30 Sep - 15:29:11 10° NW 15:35:04 81° WSW 15:40:53 10° SSE daylight
30 Sep - 17:17:30 10° WNW 17:20:27 14° WSW 17:23:23 10° SW daylight
01 Oct - 04:56:45 10° SE 04:59:28 13° ESE 05:02:09 10° ENE night (unlit)
01 Oct - 06:38:38 10° SSW 06:44:48 72° ESE 06:50:50 10° NE visible
01 Oct - 08:26:22 10° W 08:31:42 30° NW 08:36:55 10° NNE visible
01 Oct - 10:17:24 10° NW 10:20:08 13° NNW 10:22:51 10° NNE visible
01 Oct - 12:06:22 10° NNW 12:09:17 14° NNE 12:12:11 10° NE visible
01 Oct - 13:52:16 10° NNW 13:57:35 33° NE 14:02:49 10° ESE daylight
01 Oct - 15:38:31 10° NW 15:44:15 57° WSW 15:49:55 10° SSE daylight
02 Oct - 05:04:06 10° SSE 05:08:22 20° ESE 05:12:36 10° ENE night (unlit)
02 Oct - 06:47:49 10° SW 06:54:02 83° WNW 07:00:07 10° NNE visible
02 Oct - 08:36:25 10° W 08:41:16 24° NNW 08:46:03 10° NNE visible
02 Oct - 10:27:43 10° NNW 10:29:59 12° N 10:32:14 10° NNE visible
02 Oct - 12:15:35 10° NNW 12:19:05 16° NNE 12:22:32 10° ENE visible
02 Oct - 14:01:25 10° NNW 14:07:03 44° NE 14:12:35 10° ESE daylight
02 Oct - 15:47:57 10° NW 15:53:21 40° WSW 15:58:42 10° S daylight
03 Oct - 05:12:12 10° SSE 05:17:21 28° ESE 05:22:26 10° NE night (unlit)
03 Oct - 06:57:14 10° SW 07:03:21 62° NW 07:09:20 10° NNE visible
03 Oct - 08:46:38 10° WNW 08:50:56 19° NNW 08:55:10 10° NNE visible
03 Oct - 10:37:49 10° NNW 10:39:51 12° N 10:41:53 10° NNE visible
03 Oct - 12:24:44 10° NNW 12:28:49 19° NNE 12:32:50 10° ENE visible
03 Oct - 14:10:37 10° NNW 14:16:26 59° NE 14:22:09 10° SE daylight
03 Oct - 15:57:33 10° NW 16:02:23 27° WSW 16:07:11 10° SSW daylight
04 Oct - 05:20:41 10° S 05:26:24 40° ESE 05:32:01 10° NE night (unlit)
04 Oct - 07:06:50 10° WSW 07:12:44 46° NW 07:18:30 10° NNE visible
04 Oct - 08:56:57 10° WNW 09:00:39 16° NNW 09:04:19 10° NNE visible
04 Oct - 10:47:34 10° NNW 10:49:44 12° N 10:51:52 10° NNE visible
04 Oct - 12:33:53 10° NNW 12:38:29 23° NNE 12:43:00 10° E visible
04 Oct - 14:19:50 10° NNW 14:25:45 82° NE 14:31:33 10° SE daylight
04 Oct - 16:07:26 10° WNW 16:11:21 19° WSW 16:15:14 10° SSW daylight
05 Oct - 05:29:29 10° SSW 05:35:32 58° ESE 05:41:26 10° NE night (unlit)
05 Oct - 07:16:37 10° WSW 07:22:11 35° NW 07:27:40 10° NNE visible
05 Oct - 09:07:20 10° NW 09:10:26 14° NNW 09:13:29 10° NNE visible
05 Oct - 10:57:01 10° NNW 10:59:35 13° NNE 11:02:07 10° NE visible
05 Oct - 12:43:01 10° NNW 12:48:04 28° NE 12:53:03 10° E visible
05 Oct - 14:29:07 10° NW 14:34:58 72° WSW 14:40:44 10° SSE daylight
05 Oct - 16:18:03 10° W 16:20:14 12° W 16:22:24 10° WSW daylight
